Location: Central Coast NSW, Australia
(33.2407°S, 151.4316°E)
Time: 08:07:04
(UTC+10:00)

N. Korean satellite - Pass Details

Date: 25 March 2019
Orbit: 457 x 508 km, 97.2° (Epoch: 22 April)

Event Time Altitude Azimuth Distance (km) Brightness Sun altitude
Rises 05:19:29 0° 55° (NE) 2,606 10.9 -21.8°
Reaches altitude 10° 05:22:30 10° 82° (E) 1,737 10.4 -21.2°
Maximum altitude 05:24:17 13° 111° (ESE) 1,556 10.2 -20.8°
Drops below altitude 10° 05:26:05 10° 140° (SE) 1,753 10.1 -20.5°
Sets 05:29:09 0° 167° (SSE) 2,650 10.6 -19.8°
